Simultaneous Nadir Overpasses (SNOs) Predictions

Prediction of SNOs between GOES-16 and FY3D Satellite Orbit:

Table of predicted SNOs for the next 14.0 days since TLE Epoch: 2/3/2024
Index Date Time (GOES-16) GOES-16 Lat,Lon FY3D Lat,Lon Distance(km) Time Diff (sec)
1 02/03/2024 19:13:33 0.07, -75.21 0.62, -72.82 273.07 80
2 02/05/2024 07:35:44 -0.06, -75.21 0.62, -78.15 335.10 80
3 02/06/2024 07:14:36 -0.06, -75.21 -0.39, -73.67 175.94 80
4 02/07/2024 19:36:56 0.05, -75.22 -0.83, -79.04 435.48 80
5 02/08/2024 19:21:08 0.05, -75.23 0.20, -74.56 75.96 80
6 02/11/2024 07:24:51 -0.04, -75.24 0.02, -75.41 19.60 80
7 02/12/2024 07:03:42 -0.04, -75.25 -1.00, -70.93 492.52 80
8 02/13/2024 19:26:02 0.04, -75.27 -0.19, -76.30 117.26 80
9 02/14/2024 19:10:14 0.04, -75.29 0.84, -71.83 395.18 80
10 02/16/2024 07:32:25 -0.04, -75.31 0.41, -77.15 210.40 80
